Weather History for Andrews, NC

Change the Weather History Date:

Saturday, December 22, 2012

  Actual Average (KTYS) Record (KTYS)
Temperature  
Mean Temperature 34 °F 39 °F  
Max Temperature 50 °F 48 °F 73 °F (2013)
Min Temperature 18 °F 31 °F 2 °F (1989)
Degree Days  
Heating Degree Days 31 26  
Month to date heating degree days 516  
Since 1 July heating degree days 1197  
Cooling Degree Days 0 0  
Month to date cooling degree days 0  
Year to date cooling degree days 1526  
Moisture  
Dew Point 17 °F    
Average Humidity 61    
Maximum Humidity 94    
Minimum Humidity 17    
Precipitation  
Precipitation 0.00 in 0.14 in 1.99 in (1967)
Month to date precipitation 3.28  
Year to date precipitation 46.64  
Snow  
Snow 0.00 in 0.00 in - ()
Month to date snowfall 0.4  
Since 1 July snowfall 0.4  
Snow Depth -    
Sea Level Pressure  
Sea Level Pressure 30.18 in    
Wind  
Wind Speed 3 mph (WSW)    
Max Wind Speed 10 mph    
Max Gust Speed 16 mph    
Visibility 10 miles    
Events      
T = Trace of Precipitation, MM = Missing Value Source: NWS Daily Summary

Daily Weather History Graph

Daily Weather History Graph

Search for Another Location

Airport:

Trip Planner

Search our weather history database for the weather conditions in past years. The results will help you decide how hot, cold, wet, or windy it might be!

Date:

Astronomy

Dec. 22, 2012 Rise Set
Actual Time 7:40 AM EST 5:27 PM EST
Civil Twilight 7:12 AM EST 5:56 PM EST
Nautical Twilight 6:40 AM EST 6:27 PM EST
Astronomical Twilight 6:09 AM EST 6:58 PM EST
Moon 1:39 PM EST (12/22) 2:32 AM EST (12/22)
Length of Visible Light 10h 43m
Length of Day
9h 47m
Waxing Gibbous, 73% of the Moon is Illuminated
Dec 22
Waxing Gibbous
Dec 28
Full
Jan 4
Last Quarter
Jan 11
New
Jan 18
First Quarter

Hourly Weather History & Observations

Time (EST) Temp. Windchill Dew Point Humidity Pressure Visibility Wind Dir Wind Speed Gust Speed Precip Events Conditions
12:15 AM 31.8 °F 27.3 °F 14.2 °F 48% 30.11 in 10.0 mi NW 4.6 mph - N/A   Clear
12:35 AM 28.6 °F 24.8 °F 17.1 °F 62% 30.11 in 10.0 mi West 3.5 mph - N/A   Clear
12:55 AM 25.9 °F - 18.1 °F 73% 30.12 in 10.0 mi Calm Calm - N/A   Clear
1:15 AM 27.7 °F 23.8 °F 17.4 °F 65% 30.12 in 10.0 mi NNW 3.5 mph - N/A   Clear
1:35 AM 26.4 °F - 18.0 °F 70% 30.13 in 10.0 mi Calm Calm - N/A   Clear
1:55 AM 24.8 °F - 18.3 °F 76% 30.13 in 10.0 mi Calm Calm - N/A   Clear
2:15 AM 25.0 °F 20.7 °F 18.3 °F 76% 30.14 in 10.0 mi NW 3.5 mph - N/A   Clear
2:35 AM 23.9 °F - 18.3 °F 79% 30.14 in 10.0 mi Calm Calm - N/A   Clear
2:55 AM 23.2 °F - 18.5 °F 82% 30.15 in 10.0 mi Calm Calm - N/A   Clear
3:15 AM 23.0 °F - 18.1 °F 82% 30.16 in 10.0 mi Calm Calm - N/A   Clear
3:35 AM 23.4 °F - 18.5 °F 82% 30.16 in 10.0 mi Calm Calm - N/A   Clear
3:55 AM 21.9 °F - 18.1 °F 85% 30.16 in 10.0 mi Calm Calm - N/A   Clear
4:15 AM 21.4 °F - 18.0 °F 87% 30.15 in 10.0 mi Calm Calm - N/A   Clear
4:35 AM 22.1 °F - 18.5 °F 86% 30.16 in 10.0 mi Calm Calm - N/A   Clear
4:55 AM 21.2 °F - 17.8 °F 87% 30.16 in 10.0 mi Calm Calm - N/A   Clear
5:15 AM 21.7 °F - 19.0 °F 89% 30.17 in 10.0 mi Calm Calm - N/A   Clear
5:35 AM 20.7 °F - 18.1 °F 90% 30.18 in 10.0 mi Calm Calm - N/A   Clear
5:55 AM 20.1 °F - 17.4 °F 89% 30.18 in 10.0 mi Calm Calm - N/A   Clear
6:15 AM 20.5 °F - 18.0 °F 90% 30.19 in 10.0 mi Calm Calm - N/A   Clear
6:35 AM 18.5 °F - 16.3 °F 91% 30.19 in 10.0 mi Calm Calm - N/A   Clear
6:55 AM 18.9 °F - 17.4 °F 94% 30.20 in 10.0 mi Calm Calm - N/A   Clear
7:15 AM 19.9 °F - 18.0 °F 92% 30.20 in 10.0 mi Calm Calm - N/A   Clear
7:35 AM 19.0 °F - 17.6 °F 94% 30.21 in 10.0 mi Calm Calm - N/A   Clear
7:55 AM 18.7 °F - 16.9 °F 93% 30.21 in 10.0 mi Calm Calm - N/A   Clear
8:15 AM 19.2 °F - 17.4 °F 93% 30.21 in 10.0 mi Calm Calm - N/A   Clear
8:35 AM 22.5 °F - 19.4 °F 88% 30.20 in 10.0 mi Calm Calm - N/A   Clear
8:55 AM 24.6 °F 20.3 °F 21.4 °F 87% 30.20 in 10.0 mi West 3.5 mph - N/A   Clear
9:15 AM 33.4 °F 25.4 °F 17.1 °F 51% 30.20 in 10.0 mi East 10.4 mph - N/A   Clear
9:35 AM 37.9 °F 32.7 °F 11.8 °F 34% 30.20 in 10.0 mi East 6.9 mph - N/A   Clear
9:55 AM 39.7 °F 34.3 °F 10.6 °F 30% 30.20 in 10.0 mi ESE 8.1 mph - N/A   Clear
10:15 AM 41.2 °F 36.0 °F 10.4 °F 28% 30.21 in 10.0 mi East 8.1 mph 16.1 mph N/A   Clear
10:35 AM 42.4 °F 38.1 °F 10.6 °F 27% 30.21 in 10.0 mi ESE 6.9 mph - N/A   Clear
10:55 AM 43.3 °F 38.6 °F 10.0 °F 26% 30.20 in 10.0 mi East 8.1 mph - N/A   Clear
11:15 AM 44.6 °F 40.2 °F 9.0 °F 23% 30.20 in 10.0 mi East 8.1 mph - N/A   Clear
11:35 AM 45.9 °F 40.8 °F 8.6 °F 22% 30.19 in 10.0 mi East 10.4 mph - N/A   Clear
11:55 AM 46.9 °F - 8.2 °F 21% 30.18 in 10.0 mi ESE 9.2 mph - N/A   Clear
12:15 PM 47.8 °F - 8.8 °F 21% 30.17 in 10.0 mi ESE 6.9 mph - N/A   Clear
12:35 PM 46.9 °F - 13.6 °F 26% 30.16 in 10.0 mi SW 4.6 mph - N/A   Clear
12:55 PM 49.3 °F - 10.9 °F 21% 30.15 in 10.0 mi ESE 5.8 mph - N/A   Clear
1:15 PM 50.0 °F - 10.9 °F 21% 30.13 in 10.0 mi East 8.1 mph - N/A   Clear
1:35 PM 49.5 °F - 6.4 °F 17% 30.14 in 10.0 mi West 5.8 mph - N/A   Clear
1:55 PM 49.1 °F - 16.0 °F 27% 30.13 in 10.0 mi West 8.1 mph - N/A   Clear
2:15 PM 49.3 °F - 16.7 °F 27% 30.14 in 10.0 mi West 8.1 mph - N/A   Clear
2:35 PM 50.0 °F - 18.5 °F 29% 30.14 in 10.0 mi West 9.2 mph - N/A   Clear
2:55 PM 50.0 °F - 17.1 °F 27% 30.15 in 10.0 mi SW 8.1 mph - N/A   Clear
3:15 PM 49.8 °F - 16.7 °F 27% 30.15 in 10.0 mi WSW 6.9 mph - N/A   Clear
3:35 PM 49.3 °F - 15.4 °F 26% 30.15 in 10.0 mi West 8.1 mph - N/A   Clear
3:55 PM 48.7 °F - 15.3 °F 26% 30.16 in 10.0 mi WSW 6.9 mph - N/A   Clear
4:15 PM 48.4 °F - 15.3 °F 27% 30.16 in 10.0 mi WSW 4.6 mph - N/A   Clear
4:35 PM 47.3 °F - 15.1 °F 28% 30.17 in 10.0 mi WSW 8.1 mph - N/A   Clear
4:55 PM 44.2 °F 39.7 °F 19.2 °F 37% 30.17 in 10.0 mi WSW 8.1 mph - N/A   Clear
5:15 PM 41.2 °F 36.6 °F 21.0 °F 45% 30.17 in 10.0 mi West 6.9 mph - N/A   Clear
5:35 PM 39.7 °F 34.3 °F 18.5 °F 42% 30.18 in 10.0 mi West 8.1 mph - N/A   Clear
5:55 PM 38.5 °F 36.1 °F 18.5 °F 45% 30.19 in 10.0 mi NW 3.5 mph - N/A   Clear
6:15 PM 36.9 °F - 19.6 °F 50% 30.19 in 10.0 mi Calm Calm - N/A   Clear
6:35 PM 35.1 °F - 21.0 °F 57% 30.20 in 10.0 mi Calm Calm - N/A   Clear
6:55 PM 32.2 °F - 22.3 °F 67% 30.21 in 10.0 mi Calm Calm - N/A   Clear
7:15 PM 32.0 °F - 22.8 °F 69% 30.22 in 10.0 mi Calm Calm - N/A   Clear
7:35 PM 31.3 °F - 22.5 °F 70% 30.22 in 10.0 mi Calm Calm - N/A   Clear
7:55 PM 30.4 °F - 23.2 °F 75% 30.22 in 10.0 mi Calm Calm - N/A   Clear
8:15 PM 29.1 °F - 22.6 °F 77% 30.22 in 10.0 mi Calm Calm - N/A   Clear
8:35 PM 29.1 °F - 22.3 °F 76% 30.22 in 10.0 mi Calm Calm - N/A   Clear
8:55 PM 26.4 °F - 22.6 °F 86% 30.21 in 10.0 mi Calm Calm - N/A   Clear
9:15 PM 27.3 °F - 23.4 °F 85% 30.21 in 10.0 mi Calm Calm - N/A   Clear
9:35 PM 26.1 °F - 22.8 °F 88% 30.21 in 10.0 mi Calm Calm - N/A   Clear
9:55 PM 25.7 °F - 22.6 °F 88% 30.22 in 10.0 mi Calm Calm - N/A   Clear
10:15 PM 26.6 °F - 23.0 °F 86% 30.21 in 10.0 mi Calm Calm - N/A   Clear
10:35 PM 26.4 °F - 23.0 °F 87% 30.22 in 10.0 mi Calm Calm - N/A   Clear
10:55 PM 26.1 °F - 21.6 °F 83% 30.22 in 10.0 mi Calm Calm - N/A   Clear
11:15 PM 23.0 °F - 20.1 °F 89% 30.22 in 10.0 mi Calm Calm - N/A   Clear
11:35 PM 24.3 °F - 21.2 °F 88% 30.21 in 10.0 mi Calm Calm - N/A   Clear
11:55 PM 24.1 °F - 21.2 °F 89% 30.20 in 10.0 mi Calm Calm - N/A   Clear